Location: Newark
(31.5350°N, 35.0986°E)
Time: 04:20:30
(UTC+00:00)

Explorer 7 - Pass Details

Date: 27 October 2019
Orbit: 485 x 680 km, 50.3° (Epoch: 16 November)

Event Time Altitude Azimuth Distance (km) Brightness Sun altitude
Rises 05:34:31 0° 233° (SW) 2,667 10.1 19.6°
Reaches altitude 10° 05:36:48 10° 237° (WSW) 1,750 9.2 20.0°
Maximum altitude 05:40:42 61° 318° (NW) 575 6.9 20.7°
Drops below altitude 10° 05:44:28 10° 40° (NE) 1,684 9.5 21.4°
Sets 05:46:38 0° 44° (NE) 2,555 10.4 21.8°
